When you browse on this site, cookies collect data to enhance your experience and personalize the content and advertising you see.
Visit our Privacy Policy to learn more. By continuing to use the site, you agree to this use of cookies and data.
  • In Germany
  • List of Countries
  • For 7 days
  • Water Temperature
  • Weather Map
  • Weather Widgets
  • user-avatar
    Login

    Hourly Weather Sumgayit

    Today, 25 August, Sunday

    Time Temperature Precipitation Wind Pressure Humidity
    00:00 +29°C° 0 mm 2 mps 738 mmHg 33%
    01:00 +29°C° 0 mm 2 mps 738 mmHg 36%
    02:00 +28°C° 0 mm 2 mps 738 mmHg 38%
    03:00 +27°C° 0 mm 2 mps 738 mmHg 42%
    04:00 +27°C° 0 mm 2 mps 738 mmHg 44%
    05:00 +27°C° 0 mm 2 mps 738 mmHg 46%
    06:00 +27°C° 0 mm 1 mps 738 mmHg 48%
    07:00 +29°C° 0 mm 2 mps 739 mmHg 41%
    08:00 +31°C° 0 mm 3 mps 739 mmHg 34%
    09:00 +34°C° 0 mm 3 mps 739 mmHg 27%
    10:00 +34°C° 0 mm 4 mps 739 mmHg 23%
    11:00 +35°C° 0 mm 4 mps 739 mmHg 20%
    12:00 +36°C° 0 mm 5 mps 739 mmHg 17%
    13:00 +36°C° 0 mm 5 mps 738 mmHg 16%
    14:00 +36°C° 0 mm 5 mps 738 mmHg 16%
    15:00 +36°C° 0 mm 6 mps 738 mmHg 16%
    16:00 +34°C° 0 mm 5 mps 738 mmHg 18%
    17:00 +33°C° 0 mm 4 mps 738 mmHg 19%
    18:00 +32°C° 0 mm 4 mps 738 mmHg 21%
    19:00 +30°C° 0 mm 3 mps 738 mmHg 24%
    20:00 +29°C° 0 mm 2 mps 738 mmHg 27%
    21:00 +27°C° 0 mm 2 mps 738 mmHg 30%
    22:00 +27°C° 0 mm 2 mps 738 mmHg 31%
    23:00 +26°C° 0 mm 2 mps 738 mmHg 32%

    Tomorrow, 26 August, Monday

    Time Temperature Precipitation Wind Pressure Humidity
    00:00 +26°C° 0 mm 2 mps 738 mmHg 34%
    01:00 +26°C° 0 mm 3 mps 738 mmHg 34%
    02:00 +25°C° 0 mm 3 mps 738 mmHg 35%
    03:00 +25°C° 0 mm 4 mps 739 mmHg 35%
    04:00 +25°C° 0 mm 5 mps 739 mmHg 34%
    05:00 +26°C° 0 mm 6 mps 739 mmHg 33%
    06:00 +26°C° 0 mm 7 mps 739 mmHg 32%
    07:00 +28°C° 0 mm 8 mps 740 mmHg 31%
    08:00 +29°C° 0 mm 9 mps 740 mmHg 30%
    09:00 +32°C° 0 mm 10 mps 740 mmHg 29%
    10:00 +32°C° 0 mm 11 mps 740 mmHg 30%
    11:00 +33°C° 0 mm 11 mps 740 mmHg 31%
    12:00 +33°C° 0 mm 11 mps 740 mmHg 31%
    13:00 +33°C° 0 mm 11 mps 740 mmHg 33%
    14:00 +33°C° 0 mm 12 mps 740 mmHg 34%
    15:00 +33°C° 0 mm 12 mps 740 mmHg 35%
    16:00 +32°C° 0 mm 12 mps 740 mmHg 37%
    17:00 +31°C° 0 mm 13 mps 740 mmHg 38%
    18:00 +29°C° 0 mm 13 mps 740 mmHg 39%
    19:00 +28°C° 0 mm 14 mps 740 mmHg 42%
    20:00 +27°C° 0 mm 15 mps 741 mmHg 44%
    21:00 +26°C° 0 mm 15 mps 741 mmHg 47%
    22:00 +26°C° 0 mm 15 mps 741 mmHg 45%
    23:00 +26°C° 0 mm 14 mps 741 mmHg 44%

    Day after tomorrow, 27 August, Tuesday

    Time Temperature Precipitation Wind Pressure Humidity
    00:00 +26°C° 0 mm 13 mps 741 mmHg 43%
    01:00 +24°C° 0 mm 12 mps 741 mmHg 45%
    02:00 +24°C° 0 mm 12 mps 741 mmHg 48%
    03:00 +23°C° 0 mm 11 mps 741 mmHg 51%
    04:00 +23°C° 0 mm 11 mps 741 mmHg 52%
    05:00 +23°C° 0 mm 10 mps 741 mmHg 54%
    06:00 +23°C° 0 mm 9 mps 741 mmHg 55%
    07:00 +24°C° 0 mm 9 mps 741 mmHg 52%
    08:00 +26°C° 0 mm 9 mps 741 mmHg 49%
    09:00 +27°C° 0 mm 9 mps 741 mmHg 46%
    10:00 +28°C° 0 mm 9 mps 741 mmHg 44%
    11:00 +29°C° 0 mm 9 mps 740 mmHg 41%
    12:00 +31°C° 0 mm 9 mps 740 mmHg 39%
    13:00 +29°C° 0 mm 9 mps 740 mmHg 39%
    14:00 +29°C° 0 mm 8 mps 739 mmHg 39%
    15:00 +29°C° 0 mm 8 mps 739 mmHg 39%
    16:00 +28°C° 0 mm 8 mps 739 mmHg 41%
    17:00 +27°C° 0 mm 8 mps 739 mmHg 42%
    18:00 +26°C° 0 mm 8 mps 738 mmHg 44%
    19:00 +26°C° 0 mm 7 mps 739 mmHg 45%
    20:00 +26°C° 0 mm 7 mps 739 mmHg 46%
    21:00 +24°C° 0 mm 6 mps 739 mmHg 47%
    22:00 +24°C° 0 mm 6 mps 739 mmHg 49%
    23:00 +23°C° 0 mm 5 mps 738 mmHg 50%

    28 August, Wednesday

    Time Temperature Precipitation Wind Pressure Humidity
    00:00 +23°C° 0 mm 5 mps 738 mmHg 52%
    01:00 +23°C° 0 mm 5 mps 738 mmHg 53%
    02:00 +22°C° 0 mm 4 mps 738 mmHg 55%
    03:00 +22°C° 0 mm 4 mps 738 mmHg 57%
    04:00 +22°C° 0 mm 4 mps 738 mmHg 57%
    05:00 +22°C° 0 mm 3 mps 738 mmHg 56%
    06:00 +22°C° 0 mm 3 mps 738 mmHg 56%
    07:00 +25°C° 0 mm 4 mps 739 mmHg 52%
    08:00 +26°C° 0 mm 4 mps 739 mmHg 47%
    09:00 +28°C° 0 mm 4 mps 739 mmHg 42%
    10:00 +29°C° 0 mm 5 mps 739 mmHg 41%
    11:00 +30°C° 0 mm 5 mps 739 mmHg 39%
    12:00 +32°C° 0 mm 5 mps 739 mmHg 37%
    13:00 +30°C° 0 mm 6 mps 738 mmHg 37%
    14:00 +30°C° 0 mm 7 mps 738 mmHg 38%
    15:00 +31°C° 0 mm 8 mps 738 mmHg 39%
    16:00 +28°C° 0 mm 8 mps 738 mmHg 42%
    17:00 +27°C° 0 mm 8 mps 738 mmHg 45%
    18:00 +26°C° 0 mm 8 mps 738 mmHg 48%
    19:00 +26°C° 0 mm 7 mps 738 mmHg 46%
    20:00 +24°C° 0 mm 6 mps 739 mmHg 44%
    21:00 +25°C° 0 mm 4 mps 739 mmHg 42%
    22:00 +24°C° 0 mm 3 mps 739 mmHg 45%
    23:00 +24°C° 0 mm 2 mps 739 mmHg 48%

    29 August, Thursday

    Time Temperature Precipitation Wind Pressure Humidity
    00:00 +21°C° 0 mm 0 mps 739 mmHg 51%
    01:00 +23°C° 0 mm 1 mps 739 mmHg 49%
    02:00 +23°C° 0 mm 1 mps 739 mmHg 48%
    03:00 +23°C° 0 mm 1 mps 739 mmHg 46%
    04:00 +23°C° 0 mm 1 mps 739 mmHg 44%
    05:00 +24°C° 0 mm 1 mps 739 mmHg 41%
    06:00 +24°C° 0 mm 1 mps 739 mmHg 39%
    07:00 +26°C° 0 mm 1 mps 739 mmHg 35%
    08:00 +28°C° 0 mm 2 mps 739 mmHg 30%
    09:00 +29°C° 0 mm 2 mps 740 mmHg 26%
    10:00 +30°C° 0 mm 2 mps 739 mmHg 26%
    11:00 +31°C° 0 mm 3 mps 739 mmHg 26%
    12:00 +33°C° 0 mm 3 mps 739 mmHg 25%
    13:00 +32°C° 0 mm 4 mps 739 mmHg 28%
    14:00 +32°C° 0 mm 5 mps 739 mmHg 31%
    15:00 +30°C° 0 mm 5 mps 739 mmHg 34%
    16:00 +29°C° 0 mm 7 mps 739 mmHg 43%
    17:00 +27°C° 0 mm 9 mps 739 mmHg 52%
    18:00 +26°C° 0 mm 10 mps 739 mmHg 61%
    19:00 +24°C° 0 mm 10 mps 739 mmHg 65%
    20:00 +23°C° 0 mm 10 mps 740 mmHg 68%
    21:00 +22°C° 0 mm 10 mps 740 mmHg 72%
    22:00 +21°C° 0.1 mm 10 mps 740 mmHg 73%
    23:00 +21°C° 0.1 mm 9 mps 740 mmHg 73%

    30 August, Friday

    Time Temperature Precipitation Wind Pressure Humidity
    00:00 +21°C° 0.1 mm 9 mps 740 mmHg 74%
    01:00 +20°C° 0.1 mm 8 mps 740 mmHg 73%
    02:00 +20°C° 0.1 mm 8 mps 740 mmHg 73%
    03:00 +20°C° 0.1 mm 7 mps 740 mmHg 72%
    04:00 +20°C° 0 mm 7 mps 740 mmHg 71%
    05:00 +20°C° 0 mm 7 mps 740 mmHg 70%
    06:00 +20°C° 0 mm 7 mps 740 mmHg 69%
    07:00 +21°C° 0 mm 7 mps 740 mmHg 65%
    08:00 +21°C° 0 mm 7 mps 740 mmHg 62%
    09:00 +22°C° 0 mm 7 mps 740 mmHg 59%
    10:00 +22°C° 0 mm 7 mps 740 mmHg 59%
    11:00 +22°C° 0 mm 7 mps 740 mmHg 60%
    12:00 +22°C° 0 mm 7 mps 740 mmHg 61%
    13:00 +22°C° 0 mm 8 mps 740 mmHg 59%
    14:00 +22°C° 0 mm 8 mps 740 mmHg 58%
    15:00 +22°C° 0 mm 8 mps 740 mmHg 56%
    16:00 +21°C° 0 mm 8 mps 740 mmHg 59%
    17:00 +21°C° 0 mm 9 mps 740 mmHg 61%
    18:00 +19°C° 0 mm 9 mps 740 mmHg 64%
    19:00 +19°C° 0.1 mm 9 mps 740 mmHg 64%
    20:00 +20°C° 0.1 mm 8 mps 740 mmHg 64%
    21:00 +20°C° 0.1 mm 8 mps 740 mmHg 64%
    22:00 +20°C° 0 mm 8 mps 740 mmHg 66%
    23:00 +18°C° 0 mm 7 mps 740 mmHg 68%
    Show more